Météo par heure à Paris

Ce jour, 26 Juillet, Lundi

Heure Température Précipitation Vent Pression Humidité
00:00 +16°C° 0 mm 2 m/s 752 mmHg 92%
01:00 +16°C° 0 mm 2 m/s 753 mmHg 93%
02:00 +16°C° 0 mm 2 m/s 753 mmHg 93%
03:00 +16°C° 0 mm 2 m/s 753 mmHg 94%
04:00 +16°C° 0 mm 2 m/s 753 mmHg 92%
05:00 +17°C° 0 mm 2 m/s 753 mmHg 91%
06:00 +17°C° 0 mm 3 m/s 753 mmHg 89%
07:00 +18°C° 0.1 mm 3 m/s 754 mmHg 85%
08:00 +19°C° 0.1 mm 3 m/s 754 mmHg 80%
09:00 +20°C° 0.1 mm 4 m/s 754 mmHg 76%
10:00 +21°C° 0.3 mm 4 m/s 754 mmHg 74%
11:00 +21°C° 0.3 mm 4 m/s 754 mmHg 72%
12:00 +22°C° 0.3 mm 4 m/s 754 mmHg 70%
13:00 +23°C° 0.5 mm 4 m/s 754 mmHg 68%
14:00 +23°C° 0.5 mm 4 m/s 754 mmHg 66%
15:00 +25°C° 0.5 mm 4 m/s 754 mmHg 64%
16:00 +24°C° 0.7 mm 3 m/s 754 mmHg 68%
17:00 +24°C° 0.7 mm 2 m/s 754 mmHg 72%
18:00 +23°C° 0.7 mm 2 m/s 754 mmHg 77%
19:00 +22°C° 0.2 mm 1 m/s 754 mmHg 79%
20:00 +21°C° 0.2 mm 1 m/s 754 mmHg 82%
21:00 +20°C° 0.2 mm 1 m/s 754 mmHg 85%
22:00 +20°C° 0.1 mm 1 m/s 754 mmHg 85%
23:00 +19°C° 0.1 mm 1 m/s 754 mmHg 86%

Demain, 27 Juillet, Mardi

Heure Température Précipitation Vent Pression Humidité
00:00 +19°C° 0.1 mm 1 m/s 754 mmHg 87%
01:00 +19°C° 0.4 mm 1 m/s 754 mmHg 88%
02:00 +18°C° 0.4 mm 2 m/s 754 mmHg 89%
03:00 +17°C° 0.4 mm 2 m/s 754 mmHg 90%
04:00 +17°C° 0.2 mm 2 m/s 754 mmHg 90%
05:00 +17°C° 0.2 mm 2 m/s 754 mmHg 90%
06:00 +17°C° 0.2 mm 2 m/s 754 mmHg 89%
07:00 +19°C° 0 mm 3 m/s 754 mmHg 83%
08:00 +20°C° 0 mm 3 m/s 754 mmHg 77%
09:00 +21°C° 0 mm 4 m/s 754 mmHg 71%
10:00 +21°C° 0.2 mm 5 m/s 754 mmHg 69%
11:00 +22°C° 0.2 mm 5 m/s 754 mmHg 66%
12:00 +22°C° 0.2 mm 6 m/s 754 mmHg 64%
13:00 +21°C° 0.3 mm 6 m/s 754 mmHg 70%
14:00 +20°C° 0.3 mm 5 m/s 754 mmHg 75%
15:00 +19°C° 0.3 mm 4 m/s 754 mmHg 81%
16:00 +19°C° 0 mm 4 m/s 754 mmHg 79%
17:00 +20°C° 0 mm 4 m/s 753 mmHg 78%
18:00 +20°C° 0 mm 4 m/s 753 mmHg 76%
19:00 +19°C° 0.1 mm 4 m/s 753 mmHg 80%
20:00 +19°C° 0.1 mm 4 m/s 754 mmHg 84%
21:00 +18°C° 0.1 mm 3 m/s 754 mmHg 88%
22:00 +17°C° 0 mm 3 m/s 754 mmHg 90%
23:00 +17°C° 0 mm 3 m/s 754 mmHg 91%

Après-demain, 28 Juillet, Mercredi

Heure Température Précipitation Vent Pression Humidité
00:00 +16°C° 0 mm 2 m/s 754 mmHg 93%
01:00 +16°C° 0 mm 2 m/s 754 mmHg 90%
02:00 +16°C° 0 mm 2 m/s 754 mmHg 87%
03:00 +16°C° 0 mm 2 m/s 754 mmHg 84%
04:00 +16°C° 0 mm 3 m/s 754 mmHg 83%
05:00 +16°C° 0 mm 3 m/s 755 mmHg 82%
06:00 +16°C° 0 mm 3 m/s 755 mmHg 80%
07:00 +18°C° 0 mm 4 m/s 755 mmHg 73%
08:00 +19°C° 0 mm 4 m/s 755 mmHg 67%
09:00 +21°C° 0 mm 5 m/s 755 mmHg 60%
10:00 +22°C° 0 mm 5 m/s 755 mmHg 56%
11:00 +22°C° 0 mm 5 m/s 755 mmHg 53%
12:00 +23°C° 0 mm 5 m/s 754 mmHg 49%
13:00 +23°C° 0 mm 5 m/s 754 mmHg 51%
14:00 +23°C° 0 mm 5 m/s 754 mmHg 52%
15:00 +23°C° 0 mm 6 m/s 754 mmHg 54%
16:00 +23°C° 0.1 mm 5 m/s 754 mmHg 56%
17:00 +22°C° 0.1 mm 5 m/s 754 mmHg 57%
18:00 +22°C° 0.1 mm 5 m/s 754 mmHg 59%
19:00 +21°C° 0 mm 5 m/s 754 mmHg 63%
20:00 +20°C° 0 mm 4 m/s 754 mmHg 67%
21:00 +18°C° 0 mm 3 m/s 755 mmHg 70%
22:00 +18°C° 0 mm 3 m/s 755 mmHg 72%
23:00 +17°C° 0 mm 3 m/s 755 mmHg 75%

29 Juillet, Jeudi

Heure Température Précipitation Vent Pression Humidité
00:00 +16°C° 0 mm 3 m/s 755 mmHg 77%
01:00 +14°C° 0 mm 3 m/s 755 mmHg 78%
02:00 +14°C° 0 mm 3 m/s 755 mmHg 79%
03:00 +13°C° 0 mm 3 m/s 755 mmHg 81%
04:00 +14°C° 0 mm 3 m/s 755 mmHg 80%
05:00 +14°C° 0 mm 3 m/s 756 mmHg 79%
06:00 +14°C° 0 mm 3 m/s 756 mmHg 79%
07:00 +17°C° 0 mm 4 m/s 756 mmHg 70%
08:00 +18°C° 0 mm 4 m/s 756 mmHg 62%
09:00 +20°C° 0 mm 4 m/s 756 mmHg 54%
10:00 +21°C° 0 mm 4 m/s 756 mmHg 50%
11:00 +22°C° 0 mm 4 m/s 756 mmHg 46%
12:00 +23°C° 0 mm 4 m/s 756 mmHg 42%
13:00 +23°C° 0 mm 4 m/s 756 mmHg 41%
14:00 +25°C° 0 mm 4 m/s 755 mmHg 40%
15:00 +25°C° 0 mm 4 m/s 755 mmHg 39%
16:00 +25°C° 0 mm 3 m/s 755 mmHg 42%
17:00 +24°C° 0 mm 3 m/s 755 mmHg 46%
18:00 +24°C° 0 mm 2 m/s 755 mmHg 50%
19:00 +23°C° 0 mm 2 m/s 755 mmHg 53%
20:00 +20°C° 0 mm 2 m/s 755 mmHg 57%
21:00 +20°C° 0 mm 1 m/s 755 mmHg 61%
22:00 +19°C° 0 mm 1 m/s 755 mmHg 64%
23:00 +19°C° 0 mm 1 m/s 755 mmHg 68%

30 Juillet, Vendredi

Heure Température Précipitation Vent Pression Humidité
00:00 +18°C° 0 mm 1 m/s 755 mmHg 72%
01:00 +16°C° 0 mm 1 m/s 755 mmHg 73%
02:00 +16°C° 0 mm 1 m/s 755 mmHg 74%
03:00 +16°C° 0 mm 1 m/s 755 mmHg 75%
04:00 +16°C° 0 mm 1 m/s 754 mmHg 73%
05:00 +18°C° 0 mm 1 m/s 754 mmHg 72%
06:00 +18°C° 0 mm 1 m/s 754 mmHg 70%
07:00 +19°C° 0 mm 2 m/s 754 mmHg 63%
08:00 +20°C° 0 mm 3 m/s 754 mmHg 57%
09:00 +22°C° 0 mm 3 m/s 753 mmHg 50%
10:00 +25°C° 0 mm 4 m/s 753 mmHg 45%
11:00 +26°C° 0 mm 4 m/s 753 mmHg 41%
12:00 +27°C° 0 mm 5 m/s 752 mmHg 36%
13:00 +27°C° 0 mm 5 m/s 752 mmHg 37%
14:00 +27°C° 0 mm 5 m/s 752 mmHg 39%
15:00 +27°C° 0 mm 5 m/s 752 mmHg 40%
16:00 +26°C° 0.2 mm 5 m/s 752 mmHg 50%
17:00 +23°C° 0.2 mm 4 m/s 752 mmHg 60%
18:00 +22°C° 0.2 mm 4 m/s 752 mmHg 70%
19:00 +20°C° 0.4 mm 3 m/s 752 mmHg 77%
20:00 +19°C° 0.4 mm 2 m/s 752 mmHg 83%
21:00 +18°C° 0.4 mm 2 m/s 752 mmHg 90%
22:00 +17°C° 0 mm 2 m/s 752 mmHg 90%
23:00 +17°C° 0 mm 2 m/s 752 mmHg 91%

31 Juillet, Samedi

Heure Température Précipitation Vent Pression Humidité
00:00 +16°C° 0 mm 2 m/s 752 mmHg 91%
01:00 +14°C° 0 mm 3 m/s 752 mmHg 90%
02:00 +14°C° 0 mm 3 m/s 752 mmHg 89%
03:00 +13°C° 0 mm 4 m/s 752 mmHg 88%
04:00 +13°C° 0 mm 4 m/s 752 mmHg 88%
05:00 +13°C° 0 mm 4 m/s 752 mmHg 88%
06:00 +13°C° 0 mm 5 m/s 752 mmHg 88%
07:00 +14°C° 0 mm 5 m/s 753 mmHg 82%
08:00 +16°C° 0 mm 6 m/s 753 mmHg 77%
09:00 +17°C° 0 mm 6 m/s 753 mmHg 72%
10:00 +17°C° 0 mm 6 m/s 753 mmHg 68%
11:00 +19°C° 0 mm 6 m/s 753 mmHg 65%
12:00 +20°C° 0 mm 6 m/s 753 mmHg 61%
13:00 +21°C° 0.1 mm 6 m/s 753 mmHg 60%
14:00 +21°C° 0.1 mm 6 m/s 753 mmHg 58%
15:00 +22°C° 0.1 mm 6 m/s 753 mmHg 56%
16:00 +22°C° 0.2 mm 5 m/s 753 mmHg 57%
17:00 +21°C° 0.2 mm 4 m/s 753 mmHg 59%
18:00 +21°C° 0.2 mm 3 m/s 753 mmHg 60%
19:00 +20°C° 0 mm 2 m/s 753 mmHg 65%
20:00 +19°C° 0 mm 2 m/s 753 mmHg 70%
21:00 +18°C° 0 mm 1 m/s 754 mmHg 75%
22:00 +18°C° 0 mm 1 m/s 753 mmHg 77%
23:00 +16°C° 0 mm 1 m/s 753 mmHg 79%
Voir plus

Nous avons besoin de votre consentement

Meteoprog et ses fournisseurs de services peuvent stocker et accéder à des données personnelles telles que des cookies, des identifiants d'appareils ou d'autres technologies similaires sur votre appareil et traiter ces données pour personnaliser le contenu et les publicités, ainsi que pour fournir des fonctionnalités de médias sociaux et analyser le trafic.

  • Stocker et/ou accéder à des informations sur votre appareil

    Des cookies, des identifiants d'appareils ou d'autres informations peuvent être stockés ou accessibles sur votre appareil aux fins indiquées ci-dessus.

  • Annonces et contenus personnalisés, mesure des annonces et des contenus, connaissance de l'audience et développement de produits

    Les annonces et le contenu peuvent être personnalisés en fonction d'un profil. D'autres données peuvent être ajoutées pour mieux personnaliser les annonces et le contenu. Les performances des publicités et du contenu peuvent être mesurées. Il est possible d'obtenir des informations sur le public qui a vu les publicités et le contenu. Ces données peuvent être utilisées pour développer ou améliorer l'expérience de l'utilisateur, les systèmes et les logiciels.

En cliquant sur "J'accepte", vous autorisez l'utilisation de cookies, des identifiants d'appareils, des balises web ou d'autres technologies similaires. Vos paramètres peuvent être modifiés dans le navigateur de votre appareil.

Dans certains cas, des intérêts légitimes peuvent être invoqués plutôt qu'un consentement. Vous pouvez en savoir plus à ce sujet dans notre Politique de confidentialité et de cookies.